User: anonymous   Login
Location: Charleston
(38.3500°N, 81.6330°W)
Time: 10:03:16
(UTC-04:00)
Language:

Cosmos 2228 - Orbit

View from above orbital plane
View from above orbital plane
View from above satellite
View from above satellite

Ground track
Ground track

The orbit data is extracted from the following two-line orbital elements,

1 22286U 92094A   17085.58559741 +.00000325 +00000-0 +32814-4 0  9991
2 22286 082.5184 091.9820 0021618 039.4314 320.8472 14.87628037289147
Epoch (UTC): 26 March 2017 14:03:15
Eccentricity: 0.0021618
inclination: 82.5184°
perigee height: 590 km
apogee height: 620 km
right ascension of ascending node: 91.9820°
argument of perigee: 39.4314°
revolutions per day: 14.87628037
mean anomaly at epoch: 320.8472°
orbit number at epoch: 28914

The dashed part of the orbit path shows where the satellite is in the earth's shadow,  

DLR